TimeEST,TemperatureF,Dew PointF,Humidity,Sea Level PressureIn,VisibilityMPH,Wind Direction,Wind SpeedMPH,Gust SpeedMPH,PrecipitationIn,Events,Conditions,WindDirDegrees,DateUTC
12:15 AM,42.8,33.8,70,30.04,10.0,NW,4.6,-,N/A,,Clear,310,2012-11-05 05:15:00
12:35 AM,44.6,32.0,61,30.04,10.0,NW,3.5,-,N/A,,Clear,320,2012-11-05 05:35:00
12:55 AM,44.6,32.0,61,30.03,10.0,NW,6.9,-,N/A,,Clear,310,2012-11-05 05:55:00
1:15 AM,44.6,32.0,61,30.03,10.0,NW,8.1,-,N/A,,Clear,320,2012-11-05 06:15:00
1:35 AM,44.6,32.0,61,30.04,10.0,NW,5.8,-,N/A,,Clear,320,2012-11-05 06:35:00
1:55 AM,44.6,32.0,61,30.04,10.0,NW,6.9,-,N/A,,Clear,310,2012-11-05 06:55:00
2:15 AM,44.6,30.2,57,30.03,10.0,NW,6.9,-,N/A,,Clear,310,2012-11-05 07:15:00
2:35 AM,44.6,30.2,57,30.04,10.0,NNW,4.6,-,N/A,,Clear,330,2012-11-05 07:35:00
2:55 AM,44.6,28.4,53,30.04,10.0,NNW,6.9,-,N/A,,Clear,330,2012-11-05 07:55:00
3:15 AM,44.6,28.4,53,30.04,10.0,NW,5.8,-,N/A,,Clear,320,2012-11-05 08:15:00
3:35 AM,44.6,28.4,53,30.04,10.0,NW,5.8,-,N/A,,Clear,320,2012-11-05 08:35:00
3:55 AM,44.6,28.4,53,30.04,10.0,Calm,Calm,-,N/A,,Clear,0,2012-11-05 08:55:00
4:15 AM,44.6,28.4,53,30.04,10.0,Calm,Calm,-,N/A,,Clear,0,2012-11-05 09:15:00
4:35 AM,44.6,28.4,53,30.04,10.0,Calm,Calm,-,N/A,,Clear,0,2012-11-05 09:35:00
4:55 AM,42.8,28.4,57,30.05,10.0,NW,3.5,-,N/A,,Clear,320,2012-11-05 09:55:00
5:15 AM,42.8,28.4,57,30.05,10.0,Calm,Calm,-,N/A,,Clear,0,2012-11-05 10:15:00
5:35 AM,42.8,28.4,57,30.06,10.0,Calm,Calm,-,N/A,,Clear,0,2012-11-05 10:35:00
5:55 AM,41.0,30.2,65,30.06,10.0,Calm,Calm,-,N/A,,Clear,0,2012-11-05 10:55:00
6:15 AM,39.2,30.2,70,30.06,10.0,Calm,Calm,-,N/A,,Clear,0,2012-11-05 11:15:00
6:35 AM,39.2,28.4,65,30.07,10.0,Calm,Calm,-,N/A,,Clear,0,2012-11-05 11:35:00
6:55 AM,35.6,28.4,75,30.08,10.0,Calm,Calm,-,N/A,,Clear,0,2012-11-05 11:55:00
7:15 AM,37.4,30.2,75,30.08,10.0,Calm,Calm,-,N/A,,Clear,0,2012-11-05 12:15:00
7:35 AM,39.2,30.2,70,30.08,10.0,Calm,Calm,-,N/A,,Clear,0,2012-11-05 12:35:00
7:55 AM,39.2,30.2,70,30.08,10.0,Calm,Calm,-,N/A,,Clear,0,2012-11-05 12:55:00
8:15 AM,42.8,30.2,61,30.08,10.0,Calm,Calm,-,N/A,,Clear,0,2012-11-05 13:15:00
8:35 AM,44.6,30.2,57,30.08,10.0,Calm,Calm,-,N/A,,Clear,0,2012-11-05 13:35:00
8:55 AM,44.6,32.0,61,30.09,10.0,Calm,Calm,-,N/A,,Clear,0,2012-11-05 13:55:00
9:15 AM,46.4,30.2,53,30.09,10.0,Calm,Calm,-,N/A,,Clear,0,2012-11-05 14:15:00
9:35 AM,51.8,26.6,38,30.08,10.0,Calm,Calm,-,N/A,,Clear,0,2012-11-05 14:35:00
9:55 AM,53.6,23.0,30,30.09,10.0,Calm,Calm,-,N/A,,Clear,0,2012-11-05 14:55:00
10:15 AM,55.4,17.6,23,30.08,10.0,Calm,Calm,-,N/A,,Clear,0,2012-11-05 15:15:00
10:35 AM,55.4,12.2,18,30.08,10.0,Calm,Calm,-,N/A,,Clear,0,2012-11-05 15:35:00
10:55 AM,59.0,14.0,17,30.08,10.0,Calm,Calm,-,N/A,,Clear,0,2012-11-05 15:55:00
11:15 AM,59.0,12.2,16,30.07,10.0,Calm,Calm,-,N/A,,Clear,0,2012-11-05 16:15:00
11:35 AM,59.0,12.2,16,30.06,10.0,ESE,4.6,-,N/A,,Clear,120,2012-11-05 16:35:00
11:55 AM,60.8,8.6,13,30.05,10.0,SSE,3.5,-,N/A,,Clear,150,2012-11-05 16:55:00
12:15 PM,62.6,6.8,11,30.04,10.0,NNE,4.6,-,N/A,,Clear,30,2012-11-05 17:15:00
12:35 PM,60.8,10.4,14,30.03,10.0,South,6.9,-,N/A,,Clear,170,2012-11-05 17:35:00
12:55 PM,62.6,8.6,12,30.03,10.0,Calm,Calm,-,N/A,,Clear,0,2012-11-05 17:55:00
1:15 PM,62.6,8.6,12,30.01,10.0,SE,3.5,-,N/A,,Clear,140,2012-11-05 18:15:00
1:35 PM,62.6,6.8,11,30.01,10.0,North,3.5,-,N/A,,Clear,10,2012-11-05 18:35:00
1:55 PM,62.6,5.0,10,30.00,10.0,South,3.5,-,N/A,,Clear,190,2012-11-05 18:55:00
2:15 PM,62.6,6.8,11,29.99,10.0,Calm,Calm,-,N/A,,Clear,0,2012-11-05 19:15:00
2:35 PM,62.6,1.4,9,29.99,10.0,South,4.6,-,N/A,,Clear,180,2012-11-05 19:35:00
2:55 PM,62.6,5.0,10,29.98,10.0,South,3.5,-,N/A,,Clear,190,2012-11-05 19:55:00
3:15 PM,64.4,3.2,9,29.98,10.0,SSW,3.5,-,N/A,,Clear,200,2012-11-05 20:15:00
3:35 PM,62.6,8.6,12,29.98,10.0,Calm,Calm,-,N/A,,Clear,0,2012-11-05 20:35:00
3:55 PM,62.6,6.8,11,29.98,10.0,Calm,Calm,-,N/A,,Clear,0,2012-11-05 20:55:00
4:15 PM,62.6,6.8,11,29.97,10.0,Calm,Calm,-,N/A,,Clear,0,2012-11-05 21:15:00
4:35 PM,60.8,10.4,14,29.97,10.0,SSW,3.5,-,N/A,,Clear,200,2012-11-05 21:35:00
4:55 PM,60.8,12.2,15,29.97,10.0,SSW,3.5,-,N/A,,Clear,200,2012-11-05 21:55:00
5:15 PM,60.8,12.2,15,29.97,10.0,SSW,4.6,-,N/A,,Clear,200,2012-11-05 22:15:00
5:35 PM,59.0,14.0,17,29.98,10.0,SSW,3.5,-,N/A,,Clear,210,2012-11-05 22:35:00
5:55 PM,59.0,15.8,19,29.98,10.0,Calm,Calm,-,N/A,,Scattered Clouds,0,2012-11-05 22:55:00
6:15 PM,57.2,17.6,21,29.99,10.0,Calm,Calm,-,N/A,,Mostly Cloudy,0,2012-11-05 23:15:00
6:35 PM,57.2,19.4,23,29.99,10.0,Calm,Calm,-,N/A,,Mostly Cloudy,0,2012-11-05 23:35:00
6:55 PM,55.4,23.0,29,30.00,10.0,Calm,Calm,-,N/A,,Scattered Clouds,0,2012-11-05 23:55:00
7:15 PM,51.8,26.6,38,29.99,10.0,Calm,Calm,-,N/A,,Clear,0,2012-11-06 00:15:00
7:35 PM,53.6,28.4,38,29.99,10.0,Calm,Calm,-,N/A,,Clear,0,2012-11-06 00:35:00
7:55 PM,53.6,26.6,35,29.99,10.0,Calm,Calm,-,N/A,,Clear,0,2012-11-06 00:55:00
8:15 PM,53.6,28.4,38,30.00,10.0,Calm,Calm,-,N/A,,Mostly Cloudy,0,2012-11-06 01:15:00
8:35 PM,53.6,26.6,35,30.00,10.0,Calm,Calm,-,N/A,,Overcast,0,2012-11-06 01:35:00
8:55 PM,53.6,26.6,35,30.00,10.0,Calm,Calm,-,N/A,,Overcast,0,2012-11-06 01:55:00
9:15 PM,53.6,28.4,38,30.00,10.0,Calm,Calm,-,N/A,,Overcast,0,2012-11-06 02:15:00
9:35 PM,51.8,30.2,44,30.00,10.0,Calm,Calm,-,N/A,,Overcast,0,2012-11-06 02:35:00
9:55 PM,51.8,28.4,41,30.00,10.0,Calm,Calm,-,N/A,,Overcast,0,2012-11-06 02:55:00
10:15 PM,51.8,30.2,44,29.99,10.0,Calm,Calm,-,N/A,,Overcast,0,2012-11-06 03:15:00
10:35 PM,51.8,30.2,44,29.99,10.0,NE,3.5,-,N/A,,Overcast,40,2012-11-06 03:35:00
10:55 PM,51.8,28.4,41,29.99,10.0,Calm,Calm,-,N/A,,Overcast,0,2012-11-06 03:55:00
11:15 PM,51.8,28.4,41,29.99,10.0,Calm,Calm,-,N/A,,Overcast,0,2012-11-06 04:15:00
11:35 PM,51.8,32.0,47,29.98,10.0,Calm,Calm,-,N/A,Rain,Rain,0,2012-11-06 04:35:00